Regional Weather Roundup
Issued by NWS Binghamton, NY

Home | Current Version | Previous Version | Text Only | Print | Product List | Glossary On
Versions: 1 2 3 4 5 6 7 8 9 10 11 12 13 14 15 16 17 18 19 20 21 22 23 24 25 26 27
000
ASUS41 KBGM 182310
RWRBGM
RWRBGM
BINGHAMTON REGIONAL WEATHER ROUNDUP
NATIONAL WEATHER SERVICE BINGHAMTON NY
700 PM EDT FRI APR 18 2014

Note: "fair" indicates few or no clouds below 12,000 feet with no
significant weather and/or obstructions to visibility.

* = Station(s) that does not report precipitation, such as rain,
snow, etc, also no thunder or fog.

!NYZ009-015>018-022>025-036-037-044>046-055>057-062-190000
...CENTRAL NEW YORK...

CITY           SKY/WX    TMP DP  RH WIND       PRES   REMARKS
BINGHAMTON     PTCLDY    51  30  44 S10G16    30.19F
CORTLAND       FAIR      54  32  43 S8        30.19S
DANSVILLE      CLOUDY    59  36  42 N17       30.19R
ELMIRA         MOCLDY    58  31  35 S7        30.16F
ITHACA         PTCLDY    56  32  40 S10       30.18F
HAMILTON       CLEAR     55  30  38 S8G16     30.18
MONTICELLO     CLOUDY    46  25  42 S5        30.27F
NORWICH        CLEAR     54  28  37 S7        30.19F
ONEONTA        CLEAR     48  27  43 S6        30.19F
PENN YAN       CLOUDY    59  37  44 N3        30.16R
ROME           CLEAR     56  31  38 S7        30.19S
SIDNEY         CLEAR     54  32  43 S7G16     30.21S
SYRACUSE       MOCLDY    59  33  37 W5        30.17R
$$

!PAZ038>040-043-044-047-048-072-190000
...NORTHEAST PENNSYLVANIA...

CITY           SKY/WX    TMP DP  RH WIND       PRES   REMARKS
SCRANTON       CLOUDY    50  29  44 S8G18     30.25S
TOWANDA*       PTCLDY    55  28  35 S9        30.22S
$$
&&
KEY
WCI = WIND CHILL INDEX
VSB = VISIBILITY
HX  = HEAT INDEX
$$



USA.gov is the U.S. government's official web portal to all federal, state and local government web resources and services.